Location: Fond Mahaut
(18.0707°N, 63.0465°W)
Time: 09:55:48
(UTC+00:00)

Meteor 1-13 Rocket - Pass Details

Date: 08 December 2019
Orbit: 830 x 913 km, 81.3° (Epoch: 20 January)

Event Time Altitude Azimuth Distance (km) Brightness Sun altitude
Rises 23:26:15 0° 185° (S) 3,482 7.7 -25.3°
Reaches altitude 10° 23:28:43 10° 185° (S) 2,533 6.9 -25.9°
Maximum altitude 23:34:29 90° 101° (E) 871 4.1 -27.2°
Enters shadow 23:35:13 69° 7° (N) 922 4.2 -27.3°
